Regional Weather Roundup
Issued by NWS

Home | Current Version | Previous Version | Text Only | Print | Product List | Glossary On
Versions: 1 2 3 4 5 6 7 8 9 10 11 12 13 14 15 16 17 18 19 20 21 22 23 24 25 26 27 28
000
ASUS45 KREV 051910
RWRNV
NEVADA REGIONAL WEATHER ROUNDUP
NATIONAL WEATHER SERVICE RENO NV
1200 PM PDT THU MAY 05 2016

NOTE: "FAIR" INDICATES FEW OR NO CLOUDS BELOW 12,000 FEET WITH NO
SIGNIFICANT WEATHER AND/OR OBSTRUCTIONS TO VISIBILITY.

NVZ001-003-004-052000-
WESTERN NEVADA

CITY           SKY/WX    TMP DP  RH WIND       PRES   REMARKS
RENO           PTSUNNY   57  40  52 N10       29.87F
CARSON CITY    LGT RAIN  54  43  66 NW21G26   29.85F
MINDEN         LGT RAIN  54  45  71 NW9       29.86S
SLIDE MTN        N/A     34  32  93 E14         N/A
PYRAMID LAKE     N/A     54 N/A N/A N6          N/A
FALLON         CLOUDY    72  35  25 NW9       29.78F
LOVELOCK       PTSUNNY   70  37  29 NE20      29.80F
$$

NVZ002-CAZ072-073-052000-
NORTHERN AND CENTRAL SIERRA

CITY           SKY/WX    TMP DP  RH WIND       PRES   REMARKS
S. LAKE TAHOE  CLOUDY    47  40  76 NE3       29.89F
TRUCKEE        CLOUDY    52  41  66 N5        29.89F
SQUAW VLY 8000   N/A     41  36  81 E2          N/A
BLUE CANYON    FOG       44  43  96 SW3       29.91R VSB<1/4
MAMMOTH LAKES  FAIR      62  11  13 SE22G29   29.87S
BRIDGEPORT     CLOUDY    55  29  36 E14G23    29.84S
$$

NVZ030-031-036-052000-
NORTHERN NEVADA

CITY           SKY/WX    TMP DP  RH WIND       PRES   REMARKS
ELKO           PTSUNNY   75  30  19 S17G26    29.83F
WINNEMUCCA     CLOUDY    69  39  33 VRB5      29.83R
WENDOVER       PTSUNNY   72  41  33 E8        29.89F
$$

NVZ035-037-052000-
CENTRAL NEVADA

CITY           SKY/WX    TMP DP  RH WIND       PRES   REMARKS
ELY            PTSUNNY   68  19  15 S29G38    29.94F
EUREKA           N/A     70  22  16 S29G37    29.87F
$$

NVZ013-014-052000-
SOUTH CENTRAL NEVADA

CITY           SKY/WX    TMP DP  RH WIND       PRES   REMARKS
TONOPAH        PTSUNNY   68  31  25 S24G32    29.86S
$$

NVZ017-020-022-052000-
SOUTHERN NEVADA

CITY           SKY/WX    TMP DP  RH WIND       PRES   REMARKS
LAS VEGAS      PTSUNNY   81  24  12 SE13G20   29.76F
N. LAS VEGAS   PTSUNNY   81  25  12 S22       29.79F
NELLIS AFB     PTSUNNY   82  23  11 SE20G29   29.78F
HENDERSON      PTSUNNY   81  28  14 S21G29    29.82F
MERCURY        CLOUDY    76  27  16 S17G29    29.79F
$$




USA.gov is the U.S. government's official web portal to all federal, state and local government web resources and services.